Location: Newark
(23.1300°N, 73.6109°E)
Time: 11:47:21
(UTC+00:00)

BEESAT - Visible Passes

Search period start: 09 July 2020 00:00
Search period end: 19 July 2020 00:00
Orbit: 699 x 709 km, 98.6° (Epoch: 08 July)

Date Brightness Start Highest point End Pass type
(mag) Time Alt. Az. Time Alt. Az. Time Alt. Az.
12 Jul ? 00:02:14 10° SE 00:06:21 30° ENE 00:10:27 10° NNE visible
13 Jul ? 23:51:48 10° ESE 23:55:26 22° ENE 23:59:03 10° NNE visible
15 Jul ? 14:23:02 10° NW 14:25:12 13° WNW 14:27:21 10° W visible
15 Jul ? 23:41:35 10° ESE 23:44:31 16° ENE 23:47:27 10° NNE visible
17 Jul ? 14:11:09 10° NNW 14:14:18 18° WNW 14:17:29 10° WSW visible
17 Jul ? 23:31:54 10° E 23:33:38 12° ENE 23:35:23 10° NE visible
